EW8487 Weather Reports


time (UTC)temp
C
wind
direction
speed
KPH
gust
KPH
rain 1hr
cm
rain 24hr
cm
rain mn
cm
humidity
%
barometer
mb
20260507012555 9 188 0.0 1.6 0.00 0.00 0.00 84 1008.2
20260507011055 9 74 0.0 1.6 0.00 0.00 0.00 82 1008.2
20260507005555 9 188 0.0 1.6 0.00 0.00 0.00 81 1008.6
20260507004055 9 195 1.6 1.6 0.00 0.00 0.00 81 1008.6
20260507002554 10 198 0.0 1.6 0.00 0.00 0.00 82 1008.5
20260507001138 10 93 0.0 1.6 0.00 0.00 0.00 84 1008.7
20260506235627 10 143 0.0 3.2 0.00 0.00 0.00 87 1008.8
20260506234119 10 125 1.6 3.2 0.00 0.00 0.00 89 1008.9
20260506232612 10 57 1.6 3.2 0.00 0.00 0.00 90 1008.8
20260506225559 11 265 0.0 3.2 0.00 0.00 0.00 87 1009.0
20260506224055 11 206 0.0 1.6 0.00 0.00 0.00 85 1009.0
20260506222555 11 230 0.0 1.6 0.00 0.00 0.00 85 1009.0
20260506221055 11 227 0.0 1.6 0.00 0.00 0.00 85 1009.2
20260506215555 11 184 0.0 1.6 0.00 0.00 0.00 85 1009.1
20260506214055 11 202 0.0 1.6 0.00 0.00 0.00 85 1009.1
20260506212555 11 185 0.0 1.6 0.00 0.00 0.00 85 1009.0
20260506205555 11 211 0.0 1.6 0.00 0.00 0.00 84 1009.0
20260506204055 11 199 0.0 1.6 0.00 0.00 0.00 84 1008.9
20260506202555 11 180 1.6 3.2 0.00 0.00 0.00 85 1008.8
20260506201056 11 244 0.0 3.2 0.00 0.00 0.00 85 1008.6
20260506195556 11 180 1.6 3.2 0.00 0.00 0.00 85 1008.4
20260506194056 11 197 0.0 3.2 0.00 0.00 0.00 83 1008.6
20260506192557 11 179 0.0 4.8 0.00 0.00 0.00 84 1008.3
20260506191101 11 207 0.0 4.8 0.00 0.00 0.00 83 1008.3
20260506185557 11 280 0.0 6.4 0.00 0.00 0.00 83 1007.9
20260506184056 12 200 3.2 6.4 0.00 0.00 0.00 82 1007.8
20260506182556 12 167 3.2 4.8 0.00 0.00 0.00 82 1007.6
20260506181057 12 174 0.0 4.8 0.00 0.00 0.00 81 1007.6
20260506175557 13 213 1.6 4.8 0.00 0.00 0.00 82 1007.3
20260506174056 13 190 1.6 6.4 0.00 0.00 0.00 78 1007.3
20260506164056 15 251 1.6 6.4 0.00 0.00 0.00 70 1007.2
20260506162557 15 162 4.8 8.0 0.00 0.00 0.00 73 1007.1
20260506161056 15 160 3.2 6.4 0.00 0.00 0.00 69 1007.2
20260506155556 15 189 4.8 6.4 0.00 0.00 0.00 66 1007.2
20260506154056 16 168 1.6 8.0 0.00 0.00 0.00 68 1007.3
20260506152556 16 255 1.6 6.4 0.00 0.00 0.00 69 1007.4
20260506145639 16 178 1.6 8.0 0.00 0.00 0.00 68 1007.3
20260506144129 16 275 1.6 6.4 0.00 0.00 0.00 62 1007.7
20260506141113 17 161 3.2 4.8 0.00 0.00 0.00 54 1007.6
20260506134057 17 21 1.6 8.0 0.00 0.00 0.00 46 1007.5
20260506131057 18 175 1.6 3.2 0.00 0.00 0.00 40 1007.6
20260506125556 18 124 1.6 4.8 0.00 0.00 0.00 40 1007.5
20260506124056 19 166 0.0 6.4 0.00 0.00 0.00 40 1007.8
20260506122556 21 140 1.6 3.2 0.00 0.00 0.00 36 1007.8
20260506121056 20 206 1.6 4.8 0.00 0.00 0.00 36 1008.0
20260506115556 20 215 1.6 3.2 0.00 0.00 0.00 37 1008.2
20260506114100 18 173 0.0 3.2 0.00 0.00 0.00 39 1008.2
20260506111056 18 123 1.6 4.8 0.00 0.00 0.00 39 1008.4
20260506105556 18 147 0.0 6.4 0.00 0.00 0.00 41 1008.7
20260506104057 17 135 0.0 4.8 0.00 0.00 0.00 41 1008.7
20260506102556 16 120 1.6 6.4 0.00 0.00 0.00 43 1008.7
20260506101057 17 202 3.2 4.8 0.00 0.00 0.00 40 1008.8
20260506095556 17 218 0.0 6.4 0.00 0.00 0.00 42 1008.7
20260506094057 17 243 0.0 4.8 0.00 0.00 0.00 41 1008.8
20260506092556 17 201 1.6 4.8 0.00 0.00 0.00 40 1008.7
20260506091056 17 205 0.0 4.8 0.00 0.00 0.00 41 1008.5
20260506085556 17 239 1.6 3.2 0.00 0.00 0.00 40 1008.6
20260506084056 17 168 1.6 1.6 0.00 0.00 0.00 40 1008.4
20260506082556 16 190 0.0 1.6 0.00 0.00 0.00 43 1008.5
20260506081057 15 176 1.6 1.6 0.00 0.00 0.00 45 1008.5
20260506071056 11 217 0.0 3.2 0.00 0.00 0.00 65 1008.6
20260506061056 7 284 0.0 1.6 0.00 0.00 0.00 75 1008.6
20260506044105 7 269 1.6 1.6 0.00 0.00 0.00 76 1008.2
20260506042557 7 259 0.0 1.6 0.00 0.00 0.00 76 1008.2
20260506041100 7 258 0.0 1.6 0.00 0.00 0.00 74 1008.1
20260506035557 7 259 1.6 1.6 0.00 0.00 0.00 74 1008.2
20260506034056 7 268 0.0 1.6 0.00 0.00 0.00 73 1008.3
20260506025556 8 242 0.0 1.6 0.00 0.00 0.00 72 1008.7
20260506024056 8 259 1.6 1.6 0.00 0.00 0.00 72 1008.8
20260506022557 8 201 0.0 3.2 0.00 0.00 0.00 71 1008.6
20260506021057 8 300 1.6 1.6 0.00 0.00 0.00 72 1008.7
20260506015556 8 274 1.6 1.6 0.00 0.00 0.00 71 1008.7
20260506014056 8 261 1.6 1.6 0.00 0.00 0.00 70 1008.8